Storm Lake, IA

3:56 PM CDT on April 26, 2017 (GMT -0500)
Storm Lake Municipal

Weather History for KSLB - December, 2011

Change the Weather History Date:

Monday, December 19, 2011

  Actual Average Record
Temperature  
Mean Temperature 30 °F -  
Max Temperature 33 °F 27 °F 46 °F (2006)
Min Temperature 26 °F 12 °F -11 °F (1996)
Degree Days  
Heating Degree Days 36    
Moisture  
Dew Point 24 °F    
Average Humidity 79    
Maximum Humidity 96    
Minimum Humidity 59    
Precipitation  
Precipitation 0.00 in - - ()
Sea Level Pressure  
Sea Level Pressure 30.05 in    
Wind  
Wind Speed 16 mph (North)    
Max Wind Speed 26 mph    
Max Gust Speed 37 mph    
Visibility 10 miles    
Events      
Averages and records for this station are not official NWS values.
T = Trace of Precipitation, MM = Missing Value Source: NWS Daily Summary

Daily Weather History Graph

Daily Weather History Graph

Search for Another Location

Airport or City:

Trip Planner

Search our weather history database for the weather conditions in past years. The results will help you decide how hot, cold, wet, or windy it might be!

Date:

Astronomy

Dec. 19, 2011 Rise Set
Actual Time 7:46 AM CST 4:49 PM CST
Civil Twilight 7:14 AM CST 5:21 PM CST
Nautical Twilight 6:38 AM CST 5:57 PM CST
Astronomical Twilight 6:04 AM CST 6:31 PM CST
Moon 1:52 AM CST (12/19) 12:53 PM CST (12/19)
Length of Visible Light 10h 07m
Length of Day
9h 03m
Waning Crescent, 31% of the Moon is Illuminated
Dec 19
Waning Crescent
Dec 24
New
Jan 1
First Quarter
Jan 9
Full
Jan 16
Last Quarter

Hourly Weather History & Observations

Time (CST) Temp. Windchill Dew Point Humidity Pressure Visibility Wind Dir Wind Speed Gust Speed Precip Events Conditions
12:15 AM 33.4 °F 25.4 °F 31.6 °F 93% 29.80 in 7.0 mi WSW 10.4 mph - N/A   Clear
12:35 AM 32.4 °F 22.5 °F 30.7 °F 94% 29.80 in 7.0 mi West 13.8 mph - N/A   Clear
12:55 AM 32.0 °F 22.5 °F 30.7 °F 95% 29.80 in 7.0 mi West 12.7 mph - N/A   Clear
1:15 AM 31.6 °F 21.6 °F 30.0 °F 94% 29.81 in 7.0 mi West 13.8 mph - N/A   Clear
1:35 AM 31.3 °F 21.6 °F 30.2 °F 96% 29.80 in 5.0 mi West 12.7 mph - N/A   Clear
1:55 AM 31.3 °F 22.7 °F 30.0 °F 95% 29.81 in 5.0 mi West 10.4 mph - N/A   Clear
2:15 AM 30.9 °F 21.7 °F 29.8 °F 96% 29.82 in 5.0 mi WNW 11.5 mph - N/A   Clear
2:35 AM 32.7 °F 24.5 °F 31.5 °F 95% 29.85 in 10.0 mi NW 10.4 mph - N/A   Clear
2:55 AM 33.6 °F 25.0 °F 30.6 °F 89% 29.86 in 10.0 mi North 11.5 mph - N/A   Clear
3:15 AM 32.7 °F 23.9 °F 29.5 °F 88% 29.87 in 10.0 mi North 11.5 mph - N/A   Clear
3:35 AM 33.3 °F 24.6 °F 29.1 °F 85% 29.88 in 10.0 mi North 11.5 mph - N/A   Clear
3:55 AM 32.7 °F 22.5 °F 28.8 °F 85% 29.89 in 10.0 mi North 15.0 mph - N/A   Clear
4:15 AM 32.2 °F 22.3 °F 28.4 °F 86% 29.89 in 10.0 mi North 13.8 mph - N/A   Clear
4:35 AM 31.8 °F 21.4 °F 28.0 °F 86% 29.90 in 10.0 mi North 15.0 mph - N/A   Clear
4:55 AM 31.3 °F 20.3 °F 27.9 °F 87% 29.92 in 10.0 mi North 16.1 mph - N/A   Clear
5:15 AM 30.9 °F 19.4 °F 27.9 °F 88% 29.94 in 10.0 mi North 17.3 mph 21.9 mph N/A   Clear
5:35 AM 30.2 °F 17.1 °F 27.7 °F 90% 29.94 in 10.0 mi North 21.9 mph 25.3 mph N/A   Clear
5:55 AM 29.1 °F 17.1 °F 27.1 °F 92% 29.97 in 10.0 mi North 17.3 mph 26.5 mph N/A   Scattered Clouds
6:15 AM 29.1 °F 16.0 °F 27.7 °F 94% 29.99 in 10.0 mi North 20.7 mph 27.6 mph N/A   Mostly Cloudy
6:35 AM 29.3 °F 17.0 °F 28.0 °F 95% 30.00 in 10.0 mi North 18.4 mph 28.8 mph N/A   Overcast
6:55 AM 29.1 °F 16.4 °F 27.7 °F 94% 30.02 in 10.0 mi North 19.6 mph 23.0 mph N/A   Overcast
7:15 AM 27.9 °F 14.7 °F 26.4 °F 94% 30.04 in 10.0 mi North 19.6 mph 26.5 mph N/A   Mostly Cloudy
7:35 AM 26.8 °F 13.3 °F 24.8 °F 92% 30.05 in 10.0 mi North 19.6 mph 28.8 mph N/A   Clear
7:55 AM 26.6 °F 12.7 °F 23.9 °F 90% 30.06 in 10.0 mi North 20.7 mph 33.4 mph N/A   Clear
8:15 AM 26.6 °F 12.0 °F 23.0 °F 86% 30.07 in 10.0 mi North 23.0 mph 31.1 mph N/A   Clear
8:35 AM 26.6 °F 12.7 °F 21.9 °F 82% 30.09 in 10.0 mi North 20.7 mph 29.9 mph N/A   Clear
8:55 AM 26.6 °F 11.4 °F 21.4 °F 81% 30.09 in 10.0 mi North 25.3 mph 32.2 mph N/A   Clear
9:15 AM 26.8 °F 12.6 °F 21.2 °F 79% 30.12 in 10.0 mi North 21.9 mph 27.6 mph N/A   Clear
9:35 AM 27.3 °F 12.7 °F 21.2 °F 78% 30.12 in 10.0 mi North 24.2 mph 31.1 mph N/A   Clear
9:55 AM 27.9 °F 13.1 °F 21.0 °F 75% 30.14 in 10.0 mi North 25.3 mph 34.5 mph N/A   Clear
10:15 AM 28.4 °F 13.5 °F 20.8 °F 73% 30.16 in 10.0 mi North 26.5 mph 35.7 mph N/A   Clear
10:35 AM 28.9 °F 14.5 °F 20.7 °F 71% 30.17 in 10.0 mi North 25.3 mph 35.7 mph N/A   Clear
10:55 AM 29.7 °F 15.5 °F 20.8 °F 70% 30.18 in 10.0 mi North 25.3 mph 28.8 mph N/A   Clear
11:15 AM 30.6 °F 18.2 °F 21.0 °F 68% 30.19 in 10.0 mi North 19.6 mph 36.8 mph N/A   Clear
11:35 AM 31.3 °F 17.4 °F 20.7 °F 65% 30.18 in 10.0 mi North 26.5 mph 32.2 mph N/A   Clear
11:55 AM 31.8 °F 19.0 °F 20.8 °F 64% 30.18 in 10.0 mi North 23.0 mph 33.4 mph N/A   Clear
12:15 PM 32.0 °F 18.6 °F 20.5 °F 63% 30.18 in 10.0 mi North 25.3 mph 29.9 mph N/A   Clear
12:35 PM 32.4 °F 19.7 °F 19.8 °F 60% 30.18 in 10.0 mi North 23.0 mph 28.8 mph N/A   Clear
12:55 PM 32.5 °F 20.5 °F 19.9 °F 60% 30.17 in 10.0 mi North 20.7 mph 27.6 mph N/A   Clear
1:15 PM 32.4 °F 20.0 °F 20.1 °F 61% 30.15 in 10.0 mi North 21.9 mph - N/A   Clear
1:35 PM 33.1 °F 21.5 °F 20.3 °F 59% 30.15 in 10.0 mi North 19.6 mph 26.5 mph N/A   Clear
1:55 PM 32.5 °F 20.8 °F 20.3 °F 61% 30.15 in 10.0 mi North 19.6 mph 26.5 mph N/A   Clear
2:15 PM 32.5 °F 21.2 °F 20.3 °F 61% 30.16 in 10.0 mi North 18.4 mph - N/A   Clear
2:35 PM 32.5 °F 21.5 °F 20.5 °F 61% 30.16 in 10.0 mi North 17.3 mph - N/A   Clear
2:55 PM 32.0 °F 20.1 °F 20.5 °F 63% 30.16 in 10.0 mi North 19.6 mph 23.0 mph N/A   Clear
3:15 PM 31.5 °F 20.9 °F 20.7 °F 64% 30.16 in 10.0 mi North 15.0 mph 23.0 mph N/A   Clear
3:35 PM 30.9 °F 20.7 °F 21.0 °F 67% 30.18 in 10.0 mi North 13.8 mph - N/A   Clear
3:55 PM 30.4 °F 20.0 °F 21.0 °F 68% 30.20 in 10.0 mi North 13.8 mph 17.3 mph N/A   Clear
4:15 PM 30.0 °F 20.5 °F 21.2 °F 70% 30.20 in 10.0 mi North 11.5 mph - N/A   Clear
4:35 PM 29.7 °F 20.1 °F 21.6 °F 72% 30.21 in 10.0 mi North 11.5 mph - N/A   Clear
4:55 PM 28.9 °F 21.9 °F 21.6 °F 74% 30.23 in 10.0 mi North 6.9 mph - N/A   Clear
5:15 PM 28.0 °F 19.3 °F 21.6 °F 77% 30.23 in 10.0 mi NNE 9.2 mph - N/A   Clear
5:35 PM 27.3 °F 19.9 °F 21.2 °F 78% 30.24 in 10.0 mi NNE 6.9 mph - N/A   Clear
5:55 PM 26.6 °F 18.2 °F 21.0 °F 79% 30.24 in 10.0 mi NNE 8.1 mph - N/A   Clear
6:15 PM 26.6 °F 18.2 °F 21.0 °F 79% 30.24 in 10.0 mi NNE 8.1 mph - N/A   Clear
6:35 PM 26.6 °F 16.8 °F 21.0 °F 79% 30.24 in 10.0 mi North 10.4 mph - N/A   Clear
6:55 PM 27.0 °F 17.3 °F 21.0 °F 78% 30.23 in 10.0 mi North 10.4 mph - N/A   Clear
7:15 PM 26.6 °F 16.2 °F 20.7 °F 78% 30.24 in 10.0 mi North 11.5 mph - N/A   Clear
7:35 PM 26.2 °F 15.8 °F 20.3 °F 78% 30.25 in 10.0 mi North 11.5 mph - N/A   Clear
7:55 PM 25.7 °F 15.1 °F 20.3 °F 80% 30.25 in 10.0 mi North 11.5 mph - N/A   Clear
8:15 PM 25.5 °F 14.9 °F 20.1 °F 80% 30.24 in 10.0 mi NNE 11.5 mph - N/A   Clear
8:35 PM 25.2 °F 15.7 °F 19.8 °F 80% 30.25 in 10.0 mi NNE 9.2 mph - N/A   Clear
8:55 PM 24.8 °F 15.3 °F 19.4 °F 80% 30.24 in 10.0 mi NNE 9.2 mph - N/A   Clear
9:15 PM 24.8 °F 14.0 °F 19.4 °F 80% 30.23 in 10.0 mi North 11.5 mph - N/A   Clear
9:35 PM 24.6 °F 12.7 °F 19.4 °F 81% 30.21 in 10.0 mi NNE 13.8 mph - N/A   Clear
9:55 PM 24.4 °F 11.9 °F 19.2 °F 81% 30.21 in 10.0 mi North 15.0 mph 19.6 mph N/A   Clear
10:15 PM 24.4 °F 13.5 °F 19.2 °F 81% 30.22 in 10.0 mi NNE 11.5 mph - N/A   Clear
10:35 PM 24.1 °F 13.7 °F 19.0 °F 81% 30.22 in 10.0 mi NNE 10.4 mph - N/A   Clear
10:55 PM 23.7 °F 12.1 °F 18.9 °F 82% 30.22 in 10.0 mi NNE 12.7 mph - N/A   Clear
11:15 PM 23.4 °F 12.8 °F 18.9 °F 83% 30.23 in 10.0 mi NNE 10.4 mph - N/A   Clear
11:35 PM 23.0 °F 13.1 °F 18.5 °F 83% 30.22 in 10.0 mi NNE 9.2 mph - N/A   Clear
11:55 PM 22.6 °F 14.3 °F 18.3 °F 83% 30.23 in 10.0 mi NE 6.9 mph - N/A   Clear